Weather Roundup
Issued by NWS

Home | Current Version | Previous Version | Text Only | Print | Product List | Glossary On
Versions: 1 2 3 4 5 6 7 8 9 10 11 12 13 14 15 16 17 18 19 20 21 22 23 24 25 26 27 28 29 30 31 32 33 34 35 36 37 38 39 40 41 42 43 44 45 46 47 48 49 50
000
NZUS93 KARX 240510
HRRWXR

CURRENT HOURLY OBSERVATIONS ACROSS
MUCH OF THE UPPER MISSISSIPPI VALLEY
NATIONAL WEATHER SERVICE LA CROSSE WI
1200 AM CDT SUN MAY 24 2015


...SOUTHEAST MINNESOTA...


CITY           SKY/WX    TMP DP  RH WIND       PRES   REMARKS
ROCHESTER      CLOUDY    63  48  58 E6        30.14F
ROCHESTER/MAYO CLOUDY    67  47  48 SE5       30.14S
WINONA         CLOUDY    61  54  77 CALM      30.14F
AUSTIN         CLOUDY    63  52  67 CALM      30.11F
ALBERT LEA     CLOUDY    63  54  72 CALM      30.11F
DODGE CENTER   CLOUDY    64  48  55 E5        30.13S
PRESTON        MOCLDY    64  47  54 SE3       30.15S
OWATONNA       CLOUDY    63  54  72 CALM      30.12F
FARIBAULT      CLOUDY    61  52  72 CALM      30.13S
$$

...ELSEWHERE IN MINNESOTA...


CITY           SKY/WX    TMP DP  RH WIND       PRES   REMARKS
MINNEAPOLIS    CLOUDY    63  46  54 E5        30.14S
INTNL FALLS    CLEAR     54  39  57 SW5       30.10R
DULUTH         CLEAR     58  42  55 W7        30.16S
RED WING       CLOUDY    64  45  48 E6        30.13S
REDWOOD FALLS  CLOUDY    62  49  62 E8        30.09F
MANKATO        CLOUDY    63  54  72 NE6       30.12F
WORTHINGTON    CLOUDY    61  50  67 CALM      30.09F
FAIRMONT       CLOUDY    63  48  59 E5        30.10F
$$

...SOUTHWEST WISCONSIN...


CITY           SKY/WX    TMP DP  RH WIND       PRES   REMARKS
LA CROSSE      PTCLDY    61  50  67 SE5       30.14S
PRAIRIE DU CHI MOCLDY    59  49  70 CALM      30.14S
BOSCOBEL       PTCLDY    54  49  83 CALM      30.16S
LONE ROCK      CLEAR     56  49  77 CALM      30.16F
PLATTEVILLE    PTCLDY    63  48  57 SE6       30.16S
FORT MC COY    PTCLDY    53  48  83 CALM      30.17S
CAMP DOUGLAS   MOCLDY    53  53  99 E2        30.16S
VIROQUA        MOCLDY    63  44  51 SE6       30.17S
WIS DELLS      PTCLDY    56  44  64 CALM      30.17S
$$

...ELSEWHERE IN WISCONSIN...


CITY           SKY/WX    TMP DP  RH WIND       PRES   REMARKS
MILWAUKEE      PTCLDY    60  39  45 S3        30.20S
MADISON        CLEAR     56  47  71 NE3       30.17F
GREEN BAY      MOCLDY    64  42  44 S6        30.18F
EAU CLAIRE     MOCLDY    59  46  62 NE5       30.15S
BLACK RVR FLS  FAIR      53  48  83 CALM      30.16R
MEDFORD        LGT RAIN  56  52  86 E6        30.18F
WAUSAU         CLOUDY    59  48  67 NW3       30.17S
WIS RAPIDS     CLOUDY    58  44  60 CALM      30.18F
MARSHFIELD     CLOUDY    63  44  50 CALM      30.18S
RICE LAKE      CLOUDY    59  53  80 CALM      30.18S
$$

...NORTHEAST IOWA...


CITY           SKY/WX    TMP DP  RH WIND       PRES   REMARKS
DECORAH        CLOUDY    64  48  55 SE3       30.14S
MASON CITY     CLOUDY    64  52  64 SE5       30.11F
CHARLES CITY   CLOUDY    64  48  55 E5        30.13F
OELWEIN        CLOUDY    64  50  59 SE6       30.13F
$$

...ELSEWHERE IN IOWA...


CITY           SKY/WX    TMP DP  RH WIND       PRES   REMARKS
DES MOINES     CLOUDY    68  53  58 SE9       30.07F
IOWA CITY      CLOUDY    65  50  58 S3        30.13F
FORT DODGE     CLOUDY    64  54  68 SE6       30.07F
$$

...NORTHERN ILLINOIS...


CITY           SKY/WX    TMP DP  RH WIND       PRES   REMARKS
CHICAGO-OHARE  PTCLDY    63  45  51 S6        30.20S
CHICAGO-MIDWAY MOCLDY    71  44  37 S6        30.20F
MOLINE         MOCLDY    61  49  64 SE6       30.13F
ROCKFORD       MOCLDY    61  49  64 CALM      30.19F
PEORIA         CLOUDY    70  50  49 SE6       30.16F
$$

NOTE: "FAIR" INDICATES FEW OR NO CLOUDS BELOW 12,000 FEET WITH NO
SIGNIFICANT WEATHER AND/OR OBSTRUCTIONS TO VISIBILITY. WIND
SPEEDS ARE IN MILES-PER-HOUR.



USA.gov is the U.S. government's official web portal to all federal, state and local government web resources and services.